Location: Amherst
(42.3800°N, 72.5240°W)
Time: 10:15:31
(UTC-04:00)

ISS - Pass Details

Date: 25 May 2021
Orbit: 417 x 422 km, 51.6° (Epoch: 14 June)

Event Time Altitude Azimuth Distance (km) Brightness Sun altitude
Rises 20:48:30 0° 297° (WNW) 2,364 2.4 -6.0°
Reaches altitude 10° 20:51:09 10° 319° (NW) 1,501 0.7 -6.4°
Maximum altitude 20:53:26 17° 2° (N) 1,158 -1.0 -6.8°
Drops below altitude 10° 20:55:42 10° 45° (NE) 1,503 -1.0 -7.1°
Sets 20:58:21 0° 67° (ENE) 2,368 -0.2 -7.5°
